Location: Bartshausen
(51.8454°N, 9.8167°E)
Time: 23:41:06
(UTC+00:00)

Cosmos 1725 Rocket - Pass Details

Date: 08 November 2025
Orbit: 962 x 989 km, 82.9° (Epoch: 04 December)

Event Time Altitude Azimuth Distance (km) Brightness Sun altitude
Rises 04:54:15 0° 346° (NNW) 3,713 6.8 -14.6°
Reaches altitude 10° 04:56:52 10° 341° (NNW) 2,761 6.1 -14.2°
Maximum altitude 05:02:52 47° 270° (W) 1,293 4.2 -13.3°
Drops below altitude 10° 05:08:50 10° 199° (SSW) 2,741 6.3 -12.4°
Sets 05:11:25 0° 193° (SSW) 3,683 7.0 -12.0°
